Location: East Eagle Head Ranch
(37.4411°N, 96.4431°W)
Time: 22:37:30
(UTC+00:00)

Daily predictions for brighter satellites

Satellite Brightness Start Highest point End
(mag) Time Altitude Azimuth Time Altitude Azimuth Time Altitude Azimuth
Cosmos 921 Rocket 3.4 12:00:01 10° NNW 12:04:01 39° W 12:07:56 10° S
Cosmos 44 3.7 12:00:23 10° NNW 12:04:40 55° ENE 12:08:53 10° SE
Meteor 1-16 Rocket 4.3 12:00:02 10° N 12:05:21 79° E 12:10:42 10° SSE
SL-16 R/B 2.8 12:01:06 10° S 12:06:40 64° ESE 12:12:16 10° NNE
NOSS 0 Rocket 4.4 12:01:49 10° SW 12:07:30 39° WNW 12:13:17 10° N
Cosmos 1892 Rocket 3.5 12:04:03 10° SSW 12:08:30 75° W 12:12:56 10° N
Cosmos 1726 3.1 12:06:19 10° N 12:09:54 52° E 12:13:28 10° SSE
Cosmos 1844 Rocket 4.3 12:07:50 10° WNW 12:09:59 12° W 12:12:07 10° WSW
BREEZE-M DEB (TANK) 3.0 12:07:17 10° WSW 12:13:20 62° NNW 12:16:10 10° NE
